Location: Titusville
(28.6120°N, 80.8080°W)
Time: 16:47:18
(UTC-05:00)

ISS - Visible Passes

Search period start: 18 January 2019 00:00
Search period end: 28 January 2019 00:00
Orbit: 404 x 410 km, 51.6° (Epoch: 18 January)

Date Brightness Start Highest point End Pass type
(mag) Time Alt. Az. Time Alt. Az. Time Alt. Az.
18 Jan -1.6 19:48:58 10° SW 19:50:29 25° SW 19:50:29 25° SW visible
19 Jan -3.4 18:57:48 10° SSW 19:00:56 46° SE 19:01:49 35° E visible
20 Jan -1.6 19:43:26 10° W 19:45:49 22° NW 19:45:49 22° NW visible
21 Jan -3.0 18:51:30 10° WSW 18:54:41 47° NW 18:57:00 17° NNE visible
23 Jan -1.3 18:46:17 10° W 18:48:34 17° NW 18:50:50 10° N visible
